Time,TemperatureF,DewpointF,PressureIn,WindDirection,WindDirectionDegrees,WindSpeedMPH,WindSpeedGustMPH,Humidity,HourlyPrecipIn,Conditions,Clouds,dailyrainin,SoftwareType,DateUTC
2013-02-01 00:03:00,47.0,18.0,-100.00,West,265,2.0,13.0,31,-99.99,,,-99.99,,2013-02-01 05:03:00,
2013-02-01 00:12:00,47.0,18.0,-100.00,West,270,3.0,13.0,31,-99.99,,,-99.99,,2013-02-01 05:12:00,
2013-02-01 00:22:00,47.0,18.0,-100.00,West,265,1.0,7.0,31,-99.99,,,-99.99,,2013-02-01 05:22:00,
2013-02-01 00:32:00,47.0,18.0,-100.00,West,270,1.0,13.0,31,-99.99,,,-99.99,,2013-02-01 05:32:00,
2013-02-01 00:42:00,47.0,18.0,-100.00,West,270,1.0,12.0,31,-99.99,,,-99.99,,2013-02-01 05:42:00,
2013-02-01 00:52:00,47.0,18.0,-100.00,West,275,1.0,13.0,31,-99.99,,,-99.99,,2013-02-01 05:52:00,
2013-02-01 01:02:00,47.0,18.0,-100.00,West,270,1.0,6.0,31,-99.99,,,-99.99,,2013-02-01 06:02:00,
2013-02-01 01:12:00,47.0,18.0,-100.00,West,265,4.0,14.0,31,-99.99,,,-99.99,,2013-02-01 06:12:00,
2013-02-01 01:22:00,47.0,18.0,-100.00,West,265,3.0,17.0,31,-99.99,,,-99.99,,2013-02-01 06:22:00,
2013-02-01 01:32:00,47.0,18.0,-100.00,West,265,2.0,14.0,31,-99.99,,,-99.99,,2013-02-01 06:32:00,
2013-02-01 01:52:00,47.0,18.0,-100.00,West,270,1.0,11.0,31,-99.99,,,-99.99,,2013-02-01 06:52:00,
2013-02-01 02:02:00,47.0,18.0,-100.00,West,265,4.0,16.0,31,-99.99,,,-99.99,,2013-02-01 07:02:00,
2013-02-01 02:12:00,47.0,18.0,-100.00,West,265,3.0,16.0,31,-99.99,,,-99.99,,2013-02-01 07:12:00,
2013-02-01 02:22:00,46.0,18.0,-100.00,West,275,2.0,11.0,32,-99.99,,,-99.99,,2013-02-01 07:22:00,
2013-02-01 02:32:00,46.0,18.0,-100.00,West,265,1.0,12.0,32,-99.99,,,-99.99,,2013-02-01 07:32:00,
2013-02-01 02:42:00,46.0,18.0,-100.00,West,270,8.0,17.0,32,-99.99,,,-99.99,,2013-02-01 07:42:00,
2013-02-01 02:52:00,46.0,18.0,-100.00,West,265,4.0,15.0,32,-99.99,,,-99.99,,2013-02-01 07:52:00,
2013-02-01 03:01:00,46.0,18.0,-100.00,West,275,7.0,19.0,32,-99.99,,,-99.99,,2013-02-01 08:01:00,
2013-02-01 03:11:00,46.0,18.0,-100.00,West,270,5.0,19.0,32,-99.99,,,-99.99,,2013-02-01 08:11:00,
2013-02-01 03:21:00,46.0,18.0,-100.00,West,275,4.0,21.0,33,-99.99,,,-99.99,,2013-02-01 08:21:00,
2013-02-01 03:32:00,45.0,19.0,-100.00,WSW,250,2.0,9.0,34,-99.99,,,-99.99,,2013-02-01 08:32:00,
2013-02-01 03:42:00,45.0,19.0,-100.00,West,265,4.0,19.0,34,-99.99,,,-99.99,,2013-02-01 08:42:00,
2013-02-01 03:52:00,45.0,19.0,-100.00,WSW,250,1.0,20.0,34,-99.99,,,-99.99,,2013-02-01 08:52:00,
2013-02-01 04:02:00,45.0,19.0,-100.00,WSW,255,4.0,18.0,34,-99.99,,,-99.99,,2013-02-01 09:02:00,
2013-02-01 04:11:00,45.0,19.0,-100.00,West,265,2.0,14.0,35,-99.99,,,-99.99,,2013-02-01 09:11:00,
2013-02-01 04:21:00,45.0,19.0,-100.00,WSW,255,1.0,17.0,35,-99.99,,,-99.99,,2013-02-01 09:21:00,
2013-02-01 04:32:00,45.0,19.0,-100.00,WSW,245,2.0,15.0,35,-99.99,,,-99.99,,2013-02-01 09:32:00,
2013-02-01 04:42:00,45.0,19.0,-100.00,West,265,9.0,24.0,35,-99.99,,,-99.99,,2013-02-01 09:42:00,
2013-02-01 04:51:00,45.0,19.0,-100.00,WSW,255,1.0,23.0,35,-99.99,,,-99.99,,2013-02-01 09:51:00,
2013-02-01 05:01:00,45.0,19.0,-100.00,WSW,255,4.0,21.0,35,-99.99,,,-99.99,,2013-02-01 10:01:00,
2013-02-01 05:11:00,45.0,20.0,-100.00,WSW,255,1.0,16.0,36,-99.99,,,-99.99,,2013-02-01 10:11:00,
2013-02-01 05:21:00,45.0,19.0,-100.00,West,260,4.0,16.0,36,-99.99,,,-99.99,,2013-02-01 10:21:00,
2013-02-01 05:32:00,45.0,20.0,-100.00,WSW,250,4.0,17.0,37,-99.99,,,-99.99,,2013-02-01 10:32:00,
2013-02-01 05:42:00,45.0,20.0,-100.00,WSW,250,7.0,18.0,37,-99.99,,,-99.99,,2013-02-01 10:42:00,
2013-02-01 05:53:00,45.0,20.0,-100.00,WSW,245,6.0,20.0,37,-99.99,,,-99.99,,2013-02-01 10:53:00,
2013-02-01 06:02:00,45.0,21.0,-100.00,WSW,250,10.0,23.0,38,-99.99,,,-99.99,,2013-02-01 11:02:00,
2013-02-01 06:11:00,45.0,21.0,-100.00,WSW,245,6.0,20.0,38,-99.99,,,-99.99,,2013-02-01 11:11:00,
2013-02-01 06:22:00,45.0,21.0,-100.00,WSW,245,4.0,16.0,38,-99.99,,,-99.99,,2013-02-01 11:22:00,
2013-02-01 06:32:00,45.0,21.0,-100.00,WSW,250,6.0,15.0,38,-99.99,,,-99.99,,2013-02-01 11:32:00,
2013-02-01 06:42:00,45.0,21.0,-100.00,WSW,250,4.0,18.0,39,-99.99,,,-99.99,,2013-02-01 11:42:00,
2013-02-01 06:53:00,45.0,22.0,-100.00,WSW,255,7.0,20.0,39,-99.99,,,-99.99,,2013-02-01 11:53:00,
2013-02-01 07:03:00,45.0,21.0,-100.00,SW,235,9.0,19.0,38,-99.99,,,-99.99,,2013-02-01 12:03:00,
2013-02-01 07:12:00,45.0,22.0,-100.00,WSW,255,4.0,19.0,39,-99.99,,,-99.99,,2013-02-01 12:12:00,
2013-02-01 07:23:00,45.0,22.0,-100.00,WSW,255,4.0,19.0,39,-99.99,,,-99.99,,2013-02-01 12:23:00,
2013-02-01 07:32:00,45.0,22.0,-100.00,SW,235,4.0,19.0,39,-99.99,,,-99.99,,2013-02-01 12:32:00,
2013-02-01 07:42:00,46.0,22.0,-100.00,WSW,240,6.0,21.0,39,-99.99,,,-99.99,,2013-02-01 12:42:00,
2013-02-01 07:52:00,46.0,22.0,-100.00,SW,215,6.0,19.0,39,-99.99,,,-99.99,,2013-02-01 12:52:00,
2013-02-01 08:02:00,46.0,22.0,-100.00,SW,235,6.0,21.0,38,-99.99,,,-99.99,,2013-02-01 13:02:00,
2013-02-01 08:12:00,47.0,23.0,-100.00,WSW,245,9.0,19.0,38,-99.99,,,-99.99,,2013-02-01 13:12:00,
2013-02-01 08:22:00,47.0,23.0,-100.00,WSW,240,6.0,21.0,38,-99.99,,,-99.99,,2013-02-01 13:22:00,
2013-02-01 08:33:00,47.0,23.0,-100.00,WSW,250,17.0,28.0,38,-99.99,,,-99.99,,2013-02-01 13:33:00,
2013-02-01 08:42:00,47.0,23.0,-100.00,WSW,245,8.0,21.0,38,-99.99,,,-99.99,,2013-02-01 13:42:00,
2013-02-01 08:53:00,48.0,24.0,-100.00,WSW,245,9.0,21.0,38,-99.99,,,-99.99,,2013-02-01 13:53:00,
2013-02-01 09:03:00,48.0,23.0,-100.00,WSW,240,9.0,24.0,37,-99.99,,,-99.99,,2013-02-01 14:03:00,
2013-02-01 09:12:00,49.0,24.0,-100.00,West,260,12.0,26.0,37,-99.99,,,-99.99,,2013-02-01 14:12:00,
2013-02-01 09:22:00,50.0,24.0,-100.00,West,260,12.0,24.0,37,-99.99,,,-99.99,,2013-02-01 14:22:00,
2013-02-01 09:32:00,50.0,24.0,-100.00,WSW,255,8.0,21.0,36,-99.99,,,-99.99,,2013-02-01 14:32:00,
2013-02-01 09:42:00,51.0,24.0,-100.00,West,260,9.0,22.0,35,-99.99,,,-99.99,,2013-02-01 14:42:00,
2013-02-01 09:52:00,52.0,25.0,-100.00,West,265,6.0,24.0,35,-99.99,,,-99.99,,2013-02-01 14:52:00,
2013-02-01 10:03:00,53.0,25.0,-100.00,West,260,6.0,20.0,33,-99.99,,,-99.99,,2013-02-01 15:03:00,
2013-02-01 10:12:00,53.0,24.0,-100.00,West,265,15.0,28.0,32,-99.99,,,-99.99,,2013-02-01 15:12:00,
2013-02-01 10:22:00,53.0,24.0,-100.00,West,270,15.0,29.0,32,-99.99,,,-99.99,,2013-02-01 15:22:00,
2013-02-01 10:33:00,53.0,24.0,-100.00,West,265,8.0,24.0,32,-99.99,,,-99.99,,2013-02-01 15:33:00,
2013-02-01 10:42:00,53.0,24.0,-100.00,West,260,3.0,26.0,32,-99.99,,,-99.99,,2013-02-01 15:42:00,
2013-02-01 10:52:00,53.0,24.0,-100.00,West,270,10.0,21.0,32,-99.99,,,-99.99,,2013-02-01 15:52:00,
2013-02-01 11:03:00,53.0,25.0,-100.00,West,275,7.0,27.0,33,-99.99,,,-99.99,,2013-02-01 16:03:00,
2013-02-01 11:12:00,53.0,25.0,-100.00,West,265,6.0,23.0,34,-99.99,,,-99.99,,2013-02-01 16:12:00,
2013-02-01 11:22:00,53.0,25.0,-100.00,West,280,11.0,25.0,34,-99.99,,,-99.99,,2013-02-01 16:22:00,
2013-02-01 11:33:00,54.0,26.0,-100.00,West,265,6.0,17.0,33,-99.99,,,-99.99,,2013-02-01 16:33:00,
2013-02-01 11:43:00,54.0,26.0,-100.00,West,265,6.0,26.0,33,-99.99,,,-99.99,,2013-02-01 16:43:00,
2013-02-01 11:52:00,54.0,25.0,-100.00,West,280,14.0,27.0,32,-99.99,,,-99.99,,2013-02-01 16:52:00,
2013-02-01 12:03:00,55.0,25.0,-100.00,West,260,8.0,26.0,31,-99.99,,,-99.99,,2013-02-01 17:03:00,
2013-02-01 12:12:00,56.0,25.0,-100.00,West,265,10.0,28.0,31,-99.99,,,-99.99,,2013-02-01 17:12:00,
2013-02-01 12:22:00,56.0,25.0,-100.00,West,270,9.0,24.0,31,-99.99,,,-99.99,,2013-02-01 17:22:00,
2013-02-01 12:32:00,55.0,25.0,-100.00,WNW,290,8.0,23.0,31,-99.99,,,-99.99,,2013-02-01 17:32:00,
2013-02-01 12:42:00,54.0,24.0,-100.00,WNW,300,12.0,27.0,31,-99.99,,,-99.99,,2013-02-01 17:42:00,
2013-02-01 12:52:00,56.0,24.0,-100.00,West,275,12.0,30.0,29,-99.99,,,-99.99,,2013-02-01 17:52:00,
2013-02-01 13:03:00,56.0,22.0,-100.00,West,265,10.0,27.0,27,-99.99,,,-99.99,,2013-02-01 18:03:00,
2013-02-01 13:12:00,55.0,22.0,-100.00,WNW,290,16.0,31.0,27,-99.99,,,-99.99,,2013-02-01 18:12:00,
2013-02-01 13:23:00,56.0,21.0,-100.00,West,275,11.0,31.0,25,-99.99,,,-99.99,,2013-02-01 18:23:00,
2013-02-01 13:32:00,55.0,19.0,-100.00,WNW,300,18.0,33.0,24,-99.99,,,-99.99,,2013-02-01 18:32:00,
2013-02-01 13:42:00,55.0,19.0,-100.00,WNW,290,7.0,30.0,24,-99.99,,,-99.99,,2013-02-01 18:42:00,
2013-02-01 13:52:00,55.0,19.0,-100.00,NW,305,16.0,24.0,24,-99.99,,,-99.99,,2013-02-01 18:52:00,
2013-02-01 14:03:00,54.0,18.0,-100.00,NW,310,17.0,32.0,24,-99.99,,,-99.99,,2013-02-01 19:03:00,
2013-02-01 14:12:00,56.0,18.0,-100.00,West,260,7.0,29.0,23,-99.99,,,-99.99,,2013-02-01 19:12:00,
2013-02-01 14:22:00,55.0,18.0,-100.00,WNW,300,19.0,26.0,23,-99.99,,,-99.99,,2013-02-01 19:22:00,
2013-02-01 14:32:00,55.0,17.0,-100.00,WNW,290,10.0,30.0,22,-99.99,,,-99.99,,2013-02-01 19:32:00,
2013-02-01 14:42:00,55.0,17.0,-100.00,WNW,300,13.0,27.0,22,-99.99,,,-99.99,,2013-02-01 19:42:00,
2013-02-01 14:52:00,54.0,15.0,-100.00,WNW,300,20.0,28.0,21,-99.99,,,-99.99,,2013-02-01 19:52:00,
2013-02-01 15:02:00,55.0,16.0,-100.00,WNW,290,11.0,29.0,21,-99.99,,,-99.99,,2013-02-01 20:02:00,
2013-02-01 15:11:00,54.0,15.0,-100.00,NW,305,21.0,28.0,21,-99.99,,,-99.99,,2013-02-01 20:11:00,
2013-02-01 15:22:00,54.0,16.0,-100.00,NNW,335,31.0,36.0,22,-99.99,,,-99.99,,2013-02-01 20:22:00,
2013-02-01 15:32:00,54.0,16.0,-100.00,NW,315,16.0,34.0,22,-99.99,,,-99.99,,2013-02-01 20:32:00,
2013-02-01 15:42:00,54.0,16.0,-100.00,NW,315,28.0,32.0,22,-99.99,,,-99.99,,2013-02-01 20:42:00,
2013-02-01 15:52:00,54.0,16.0,-100.00,NW,310,17.0,31.0,22,-99.99,,,-99.99,,2013-02-01 20:52:00,
2013-02-01 16:02:00,54.0,16.0,-100.00,NNW,335,21.0,30.0,22,-99.99,,,-99.99,,2013-02-01 21:02:00,
2013-02-01 16:12:00,54.0,17.0,-100.00,NW,310,16.0,28.0,23,-99.99,,,-99.99,,2013-02-01 21:12:00,
2013-02-01 16:22:00,54.0,16.0,-100.00,NNW,335,25.0,31.0,22,-99.99,,,-99.99,,2013-02-01 21:22:00,
2013-02-01 16:32:00,54.0,16.0,-100.00,NNW,335,11.0,32.0,22,-99.99,,,-99.99,,2013-02-01 21:32:00,
2013-02-01 16:42:00,54.0,15.0,-100.00,WNW,295,14.0,21.0,21,-99.99,,,-99.99,,2013-02-01 21:42:00,
2013-02-01 16:52:00,54.0,14.0,-100.00,WNW,295,9.0,21.0,20,-99.99,,,-99.99,,2013-02-01 21:52:00,
2013-02-01 17:03:00,54.0,14.0,-100.00,NW,310,4.0,16.0,20,-99.99,,,-99.99,,2013-02-01 22:03:00,
2013-02-01 17:11:00,54.0,14.0,-100.00,NW,305,8.0,24.0,20,-99.99,,,-99.99,,2013-02-01 22:11:00,
2013-02-01 17:22:00,54.0,14.0,-100.00,NW,305,6.0,14.0,20,-99.99,,,-99.99,,2013-02-01 22:22:00,
2013-02-01 17:32:00,54.0,14.0,-100.00,NW,305,6.0,14.0,20,-99.99,,,-99.99,,2013-02-01 22:32:00,
2013-02-01 17:42:00,54.0,14.0,-100.00,NW,305,6.0,14.0,20,-99.99,,,-99.99,,2013-02-01 22:42:00,
2013-02-01 17:52:00,53.0,13.0,-100.00,NW,305,3.0,13.0,20,-99.99,,,-99.99,,2013-02-01 22:52:00,
2013-02-01 18:02:00,51.0,15.0,-100.00,North,0,9.0,20.0,23,-99.99,,,-99.99,,2013-02-01 23:02:00,
2013-02-01 18:11:00,51.0,16.0,-100.00,North,0,7.0,19.0,25,-99.99,,,-99.99,,2013-02-01 23:11:00,
2013-02-01 18:22:00,51.0,17.0,-100.00,North,5,1.0,21.0,26,-99.99,,,-99.99,,2013-02-01 23:22:00,
2013-02-01 18:32:00,50.0,17.0,-100.00,North,10,0.0,17.0,26,-99.99,,,-99.99,,2013-02-01 23:32:00,
2013-02-01 18:42:00,50.0,17.0,-100.00,North,5,1.0,6.0,27,-99.99,,,-99.99,,2013-02-01 23:42:00,
2013-02-01 18:52:00,49.0,17.0,-100.00,North,0,0.0,9.0,27,-99.99,,,-99.99,,2013-02-01 23:52:00,
2013-02-01 19:02:00,49.0,17.0,-100.00,North,0,0.0,2.0,27,-99.99,,,-99.99,,2013-02-02 00:02:00,
2013-02-01 19:11:00,49.0,17.0,-100.00,North,0,0.0,1.0,27,-99.99,,,-99.99,,2013-02-02 00:11:00,
2013-02-01 19:22:00,49.0,17.0,-100.00,North,0,0.0,3.0,27,-99.99,,,-99.99,,2013-02-02 00:22:00,
2013-02-01 19:32:00,49.0,16.0,-100.00,North,0,0.0,3.0,27,-99.99,,,-99.99,,2013-02-02 00:32:00,
2013-02-01 19:42:00,48.0,15.0,-100.00,North,0,1.0,4.0,26,-99.99,,,-99.99,,2013-02-02 00:42:00,
2013-02-01 19:52:00,48.0,15.0,-100.00,North,0,1.0,4.0,26,-99.99,,,-99.99,,2013-02-02 00:52:00,
2013-02-01 20:02:00,48.0,15.0,-100.00,North,5,0.0,1.0,27,-99.99,,,-99.99,,2013-02-02 01:02:00,
2013-02-01 20:11:00,47.0,14.0,-100.00,North,10,0.0,4.0,26,-99.99,,,-99.99,,2013-02-02 01:11:00,
2013-02-01 20:22:00,47.0,13.0,-100.00,NNE,15,0.0,1.0,25,-99.99,,,-99.99,,2013-02-02 01:22:00,
2013-02-01 20:32:00,47.0,14.0,-100.00,NNE,15,0.0,2.0,26,-99.99,,,-99.99,,2013-02-02 01:32:00,
2013-02-01 20:42:00,46.0,13.0,-100.00,NNE,15,0.0,0.0,26,-99.99,,,-99.99,,2013-02-02 01:42:00,
2013-02-01 20:52:00,46.0,13.0,-100.00,North,10,0.0,1.0,26,-99.99,,,-99.99,,2013-02-02 01:52:00,
2013-02-01 21:01:00,46.0,14.0,-100.00,North,10,0.0,0.0,27,-99.99,,,-99.99,,2013-02-02 02:01:00,
2013-02-01 21:11:00,45.0,13.0,-100.00,NNE,15,0.0,1.0,27,-99.99,,,-99.99,,2013-02-02 02:11:00,
2013-02-01 21:22:00,45.0,13.0,-100.00,NNE,20,0.0,2.0,26,-99.99,,,-99.99,,2013-02-02 02:22:00,
2013-02-01 21:32:00,45.0,13.0,-100.00,NNE,20,2.0,8.0,27,-99.99,,,-99.99,,2013-02-02 02:32:00,
2013-02-01 21:42:00,45.0,12.0,-100.00,NNE,20,0.0,1.0,26,-99.99,,,-99.99,,2013-02-02 02:42:00,
2013-02-01 21:52:00,44.0,12.0,-100.00,NNE,25,0.0,0.0,26,-99.99,,,-99.99,,2013-02-02 02:52:00,
2013-02-01 22:02:00,44.0,11.0,-100.00,NNE,20,0.0,1.0,25,-99.99,,,-99.99,,2013-02-02 03:02:00,
2013-02-01 22:11:00,44.0,11.0,-100.00,NNE,25,0.0,1.0,25,-99.99,,,-99.99,,2013-02-02 03:11:00,
2013-02-01 22:22:00,44.0,10.0,-100.00,NNE,25,0.0,1.0,25,-99.99,,,-99.99,,2013-02-02 03:22:00,
2013-02-01 22:32:00,44.0,10.0,-100.00,NNE,20,0.0,1.0,25,-99.99,,,-99.99,,2013-02-02 03:32:00,
2013-02-01 22:42:00,43.0,10.0,-100.00,NNE,25,0.0,1.0,26,-99.99,,,-99.99,,2013-02-02 03:42:00,
2013-02-01 22:52:00,42.0,10.0,-100.00,NE,40,1.0,9.0,26,-99.99,,,-99.99,,2013-02-02 03:52:00,
2013-02-01 23:02:00,42.0,10.0,-100.00,NNE,30,0.0,1.0,27,-99.99,,,-99.99,,2013-02-02 04:02:00,
2013-02-01 23:11:00,41.0,9.0,-100.00,NE,40,0.0,4.0,26,-99.99,,,-99.99,,2013-02-02 04:11:00,
2013-02-01 23:22:00,41.0,8.0,-100.00,NE,35,0.0,1.0,26,-99.99,,,-99.99,,2013-02-02 04:22:00,
2013-02-01 23:32:00,40.0,8.0,-100.00,NE,45,0.0,2.0,26,-99.99,,,-99.99,,2013-02-02 04:32:00,
2013-02-01 23:42:00,40.0,8.0,-100.00,NE,45,0.0,2.0,26,-99.99,,,-99.99,,2013-02-02 04:42:00,
2013-02-01 23:52:00,40.0,9.0,-100.00,NE,35,0.0,1.0,27,-99.99,,,-99.99,,2013-02-02 04:52:00,